Погода в Фатьянове

Россия / Ярославская область     57°01′43″N   38°54′51″E
темп.,
°C
ветер,
м/с
пор.,
м/с
влажн.,
%
обл.,
%
осадки,
мм/ч
давл.,
гПа
погр.,
м
3 августа, вт
вт300:00+20ю41487100 1.3 1002428
03:00+18юз51294100 1.9 1003676
06:00+16зюз41085100 0.0 1005784
09:00+20зюз476193 0.0 10061091
12:00+24зюз454538 0.0 10072044
15:00+22юз3651100 0.0 10071036
18:00+19зюз286484 0.0 1008407
21:00+18ююз2870100 0.0 1009236
4 августа, ср
ср400:00+16з38630 0.0 1011320
03:00+12зюз28831 0.0 1012168
06:00+13з38830 0.0 1013217
09:00+19зсз46540 0.0 10141018
12:00+22з45395 0.0 10152101
15:00+22зсз553677 0.0 10142457
18:00+21з244536 0.0 10151546
21:00+17ссз2257100 0.0 101644
5 августа, чт
чт500:00+16ссз115894 0.0 101719
03:00+15сз1161100 0.0 101711
06:00+15зюз0062100 0.0 101811
09:00+19в124999 0.0 1018406
12:00+22в1240100 0.0 10172076
15:00+22юв2247100 0.0 10171436
18:00+16з2382100 0.7 101760
21:00+14в2598100 4.8 1017203
6 августа, пт
пт600:00+14вюв3998100 3.1 1016466
03:00+14ююв3899100 5.8 1015458
06:00+14юв2799100 5.3 1014372
09:00+14юв3699100 7.0 1014343
12:00+16ююв1393100 0.1 1014390
15:00+18вюв1286100 0.4 1013486
18:00+15вюв2499100 3.6 1014212
21:00+15в2599100 3.8 1014227
7 августа, сб
сб700:00+15всв3799100 0.8 1014319
03:00+14всв4799100 0.9 1013358
06:00+14в2699100 5.4 1015354
09:00+14всв4899100 10.8 1015351
12:00+16всв4794100 0.0 1015515
15:00+18всв5889100 0.2 1015593
18:00+16всв51097100 1.8 1015501
21:00+16всв51199100 2.1 1015447